User: anonymous
Location: Mentone
(34.5413°N, 85.5351°W)
Time: 21:39:58
(UTC-05:00)
Language:

Transit 2A Rocket - Orbit

View from above orbital plane
View from above orbital plane
View from above satellite
View from above satellite

Ground track
Ground track

The orbit data is extracted from the following two-line orbital elements,

1 00047U 60007C   14112.32558861  .00000528  00000-0  14591-3 0  1878
2 00047 066.6688 043.6094 0226009 148.9343 212.5356 14.41075480811031
Epoch (UTC): 22 April 2014 07:48:50
Eccentricity: 0.0226009
inclination: 66.6688°
perigee height: 594 km
apogee height: 916 km
right ascension of ascending node: 43.6094°
argument of perigee: 148.9343°
revolutions per day: 14.41075480
mean anomaly at epoch: 212.5356°
orbit number at epoch: 81103

The dashed part of the orbit path shows where the satellite is in the earth's shadow,  

DLR